Wind_Speed
73 74 74 75 75 76 77 77 78 78 78 78 78 78 78 78 78 77 77 76 75 75 74 74 74 75 76 78 79 81 82 83 85 86 86 87 88 88 88 89 90 90 91 91 91 92 92 92 93 93 93 93 93 93 93 94 94 93 93 93 93 94 94 94 96 97 100 102 103 101 99 99 99 99 101 103 103 103 108 110 104 98 98 99 100 101 100 99
70 71 71 72 72 73 74 75 76 76 77 78 78 78 78 78 78 78 78 77 76 75 75 74 74 74 74 75 76 78 79 81 82 84 85 86 87 87 87 88 88 89 89 89 90 90 91 91 92 92 92 93 93 93 93 94 94 94 93 93 93 95 95 95 97 99 101 101 102 101 98 99 100 103 106 105 104 104 108 111 104 99 98 99 101 102 101 98
68 68 69 69 69 70 71 71 72 73 74 75 76 77 77 78 78 78 78 78 77 76 76 75 74 74 73 73 74 75 76 78 80 81 83 84 85 86 87 87 87 88 88 88 89 89 90 90 91 92 92 92 93 93 93 93 94 94 94 93 95 97 96 97 99 101 102 100 101 102 101 102 102 106 107 105 105 106 109 110 103 98 98 98 100 102 100 95
66 66 67 67 68 68 68 69 69 70 71 72 73 75 76 76 77 78 78 78 78 77 77 76 75 74 74 73 73 73 74 75 78 79 80 82 83 84 85 86 86 87 87 88 88 89 89 90 91 91 92 92 93 93 93 94 94 95 95 95 97 98 98 99 101 101 102 101 102 105 106 104 103 107 107 105 107 108 108 106 100 96 95 95 97 98 95 90
63 64 65 65 66 67 67 68 68 68 68 69 70 71 73 74 75 76 76 77 77 77 77 77 76 75 74 73 73 73 73 74 76 76 77 79 80 82 83 84 85 86 86 87 88 89 89 90 90 91 92 92 93 93 94 94 95 95 96 97 99 100 100 101 102 102 102 102 105 108 107 105 103 106 105 104 106 105 103 101 97 92 90 90 91 92 89 85
61 62 62 63 64 65 65 66 67 67 67 67 68 68 70 71 72 73 74 75 76 76 77 77 77 76 75 74 74 73 73 75 75 74 75 76 77 79 80 81 83 84 85 86 87 88 89 89 90 91 92 92 93 93 94 95 95 96 97 99 99 100 99 100 102 101 101 102 105 106 105 103 102 102 101 101 101 97 94 94 91 87 85 84 85 87 85 81
59 59 60 61 61 62 63 64 65 65 66 67 67 67 68 68 69 70 71 72 73 74 75 76 76 76 76 75 74 74 74 75 74 74 74 75 75 76 78 79 80 82 83 84 86 87 87 88 89 90 91 92 92 93 93 94 95 95 96 97 98 98 98 98 99 98 98 98 100 100 100 98 96 95 95 94 93 88 84 86 86 83 81 80 80 82 80 76
57 58 58 59 59 59 60 61 62 63 64 65 65 66 66 67 67 68 69 70 71 72 73 74 74 75 75 75 75 75 75 75 75 74 73 73 74 74 75 76 77 79 80 81 83 84 85 86 87 88 88 89 90 90 91 91 92 92 93 94 94 94 94 94 93 92 92 92 92 92 92 90 89 87 87 88 85 79 76 78 80 79 76 75 74 75 73 70
55 56 57 57 57 57 58 58 59 60 61 61 62 63 64 65 65 66 67 68 69 70 71 71 72 72 73 73 74 75 75 75 75 74 73 73 73 73 73 73 74 75 76 77 78 79 80 81 82 83 83 84 84 84 85 85 86 86 86 87 87 87 87 86 85 85 84 84 85 85 83 83 82 81 81 82 77 71 71 73 75 73 71 69 68 68 66 64
53 54 55 55 55 56 56 56 57 58 58 59 60 60 61 62 63 64 65 66 67 67 68 69 69 70 71 71 72 73 74 75 74 74 74 73 73 73 72 72 72 73 73 74 74 75 76 76 77 77 78 77 77 77 79 79 79 79 79 80 80 80 79 79 79 79 78 78 79 78 77 77 75 76 77 75 69 67 68 68 70 68 65 63 63 62 60 59
52 53 53 54 54 54 54 54 55 55 56 56 57 57 58 59 60 61 62 63 64 65 66 66 67 68 68 69 70 71 72 72 73 73 73 73 73 73 72 72 72 72 72 72 73 73 73 74 74 74 73 73 73 74 75 74 74 74 74 75 75 74 73 74 74 74 73 73 72 71 71 71 70 72 71 66 63 64 64 63 65 63 60 59 59 59 57 56
50 51 52 52 52 52 52 53 53 53 53 53 54 54 54 55 56 57 59 60 61 62 62 63 64 65 65 66 67 68 69 69 70 70 71 71 71 71 71 71 71 71 71 71 71 71 72 72 72 71 70 71 72 71 70 70 71 70 70 70 70 69 69 70 70 68 68 67 66 66 66 66 66 67 63 59 59 60 58 58 60 59 57 56 56 55 54 54
50 50 51 52 52 52 51 51 51 51 51 51 51 51 51 52 53 54 55 56 57 58 59 60 60 61 62 62 63 64 65 66 67 67 67 68 68 68 68 68 68 69 69 69 69 69 69 69 68 68 67 68 68 66 67 67 67 65 65 65 66 65 65 65 63 62 62 62 61 60 62 62 61 61 57 55 56 53 52 53 55 53 52 52 51 50 50 50
49 49 50 51 51 51 51 51 50 50 49 49 49 49 49 49 50 51 52 53 54 54 55 56 56 57 57 58 59 60 61 62 62 63 63 64 64 64 64 64 65 65 65 65 65 65 65 65 64 64 64 64 63 62 63 62 61 61 60 61 61 61 60 59 57 58 59 57 55 55 58 58 56 57 53 50 50 47 45 46 48 47 46 46 46 46 45 45
48 49 49 50 50 51 51 51 50 49 49 48 48 48 48 48 48 48 49 50 50 51 51 51 51 52 52 53 54 54 56 57 57 58 59 59 59 59 60 60 60 60 60 60 60 60 60 60 59 59 59 58 58 58 57 57 57 57 56 57 58 57 56 54 53 55 56 53 50 51 54 55 54 53 47 43 45 43 41 41 41 41 40 40 40 41 40 40
47 48 49 49 50 50 51 51 50 50 49 48 48 48 47 47 46 46 46 46 47 47 47 47 48 48 48 49 50 50 51 52 53 53 54 54 54 54 54 54 55 55 55 55 55 55 54 54 54 54 54 54 53 54 54 53 54 53 53 54 55 54 53 52 51 51 53 50 47 47 50 52 52 49 41 38 40 38 36 37 36 36 35 34 35 36 36 37
46 47 48 49 50 50 51 51 51 50 50 49 49 48 47 46 46 45 44 44 44 44 44 44 45 45 45 46 46 46 47 48 48 49 49 49 49 49 49 49 49 49 50 50 50 50 50 50 50 50 50 51 51 51 51 51 51 51 51 52 54 53 51 51 49 47 48 47 44 44 46 48 48 46 39 34 35 34 32 33 33 33 32 31 32 32 33 34
45 46 47 48 49 50 51 51 51 51 51 50 49 49 47 46 46 45 45 44 43 42 42 43 43 42 42 43 43 43 44 44 45 45 45 45 45 45 45 45 45 46 46 46 46 47 47 47 48 48 49 49 49 49 49 49 50 50 50 52 53 52 50 49 47 43 41 41 42 43 43 43 43 42 39 32 31 32 30 29 29 29 30 30 30 30 31 32
42 44 46 47 48 50 51 51 52 51 51 51 50 49 48 47 46 45 46 45 43 42 42 42 41 40 41 41 41 42 42 41 42 42 42 43 42 42 42 43 43 44 44 45 45 46 46 47 47 48 48 49 49 49 49 49 50 49 48 49 49 48 47 47 46 41 37 36 40 43 41 40 41 40 38 32 29 31 29 27 27 27 28 28 28 28 29 31
40 42 44 45 47 49 50 51 51 52 52 51 51 50 49 48 47 47 47 45 44 43 43 43 41 40 40 41 42 42 41 41 41 41 42 42 41 41 42 42 43 43 44 44 45 46 47 47 47 48 48 48 48 48 48 49 48 46 45 45 45 45 46 46 45 40 35 35 38 41 41 40 39 39 38 33 30 31 29 27 27 27 28 27 27 28 29 30
37 39 41 43 45 47 49 50 51 51 51 51 51 51 51 49 48 48 47 46 46 45 44 44 42 41 41 42 43 42 41 41 41 41 42 42 42 42 42 43 43 43 44 45 46 47 47 46 47 46 46 48 47 46 47 46 45 44 43 43 43 44 46 45 44 39 34 36 38 39 42 41 39 39 39 35 33 33 31 29 29 29 29 28 27 28 29 31
36 37 38 40 42 44 46 48 49 50 51 51 51 51 51 50 49 49 48 48 47 46 45 45 44 42 42 43 44 43 42 42 42 42 43 42 42 43 44 44 43 44 45 45 46 47 46 45 45 44 45 47 46 44 45 44 43 43 42 42 42 44 46 44 43 39 33 35 39 40 42 42 41 40 39 37 36 35 32 32 32 30 30 30 29 30 30 31
35 36 36 38 40 41 43 45 47 48 49 49 49 50 50 50 50 50 49 49 48 47 46 46 45 44 44 43 44 44 43 42 42 43 43 42 42 44 44 44 43 44 45 45 45 46 45 44 43 41 44 46 44 43 43 43 42 42 42 42 44 45 45 45 43 38 34 35 40 43 43 42 41 40 39 40 39 36 33 35 35 31 32 33 31 31 31 32
35 35 36 37 38 39 41 42 43 44 45 46 47 48 48 48 49 49 49 48 48 48 47 46 46 46 45 44 45 45 43 43 44 44 43 43 43 44 43 43 43 43 44 43 43 44 43 42 41 41 44 45 43 43 43 42 42 42 42 43 44 45 45 45 42 39 38 39 42 45 42 41 41 40 40 42 41 37 35 37 38 35 35 34 32 33 34 34
36 36 37 37 38 39 39 39 40 40 41 42 43 45 45 46 47 47 47 47 47 47 46 47 47 46 46 45 45 44 44 44 45 43 44 44 44 44 42 42 43 43 42 41 41 43 42 40 40 42 44 43 42 43 43 42 42 42 43 43 45 46 45 45 43 40 41 44 44 43 41 41 43 41 41 42 41 38 37 38 39 39 37 34 32 35 36 36
37 38 38 38 39 39 39 38 38 37 38 39 40 41 42 44 45 45 45 44 44 45 45 46 47 46 45 44 44 44 44 45 43 41 42 45 44 42 42 42 43 42 41 40 40 42 41 38 40 43 44 43 42 43 43 42 43 43 43 44 45 46 45 45 44 42 42 45 45 42 40 42 42 41 43 42 39 37 37 39 39 39 39 35 33 35 37 38
38 39 39 40 40 40 40 40 38 36 37 38 38 38 39 41 41 42 41 41 42 43 43 44 46 46 43 42 43 44 44 45 42 40 42 43 42 40 41 41 42 41 40 39 40 41 39 38 40 43 43 43 43 43 43 43 43 43 44 44 44 45 45 45 45 43 43 45 45 41 40 42 41 42 43 41 39 37 35 37 39 40 40 36 33 35 36 38
40 40 40 41 41 42 42 41 40 39 38 38 37 37 38 38 39 39 38 39 41 41 41 42 45 45 41 40 43 43 43 43 42 42 42 42 41 40 40 40 40 40 39 39 40 40 39 38 39 42 43 43 43 43 43 43 43 43 44 44 43 45 45 44 42 42 42 42 42 41 39 40 41 42 43 40 38 37 34 36 39 40 40 36 33 33 34 36
38 41 42 41 42 43 43 43 43 41 40 39 39 38 38 38 38 38 37 39 41 41 41 42 44 44 40 39 43 42 42 42 41 41 41 42 41 40 40 40 40 41 40 40 41 40 39 38 38 41 43 42 42 43 42 41 41 42 43 43 42 43 43 41 40 41 41 39 40 42 41 39 39 41 43 40 37 37 35 36 38 40 41 37 32 32 33 34
35 38 42 43 43 43 44 45 45 43 42 41 41 40 39 39 38 37 38 40 41 41 40 41 44 43 38 39 42 42 41 42 42 41 41 42 43 42 42 41 42 42 41 40 42 41 39 38 38 40 42 42 42 42 40 38 40 41 42 41 40 41 41 40 39 41 41 39 40 44 43 40 38 40 42 41 40 39 37 37 39 41 43 38 33 33 34 33
32 35 38 41 43 44 45 46 46 45 45 44 43 41 40 39 38 38 40 40 40 40 40 42 44 42 39 40 42 42 42 42 44 43 42 44 45 44 43 42 43 43 42 41 42 42 40 38 38 40 41 41 41 40 38 38 40 41 41 40 40 41 41 40 40 41 41 42 43 45 44 41 39 40 42 43 44 42 40 41 42 42 44 41 38 37 35 32
33 33 34 37 41 44 45 46 46 46 46 45 44 43 41 39 38 40 42 40 39 41 41 43 44 42 42 43 42 42 43 44 45 44 43 45 46 45 44 44 44 44 44 42 41 41 40 38 39 41 41 40 40 40 39 40 40 40 40 41 41 41 40 40 42 43 42 43 44 44 45 43 42 43 43 44 46 45 43 45 44 43 44 45 43 40 36 32
33 33 33 34 37 41 44 46 46 46 46 45 45 44 42 39 40 44 44 40 40 43 43 44 45 44 44 45 44 44 45 46 46 45 44 45 45 45 45 44 44 45 44 41 40 41 41 39 39 41 42 41 41 41 41 42 40 41 42 42 42 42 42 43 44 44 43 44 45 45 46 46 45 46 45 46 49 48 46 47 47 46 46 47 46 43 37 35
34 34 34 34 35 36 39 43 45 46 46 46 45 45 43 42 44 46 45 43 43 44 46 47 47 47 46 46 47 46 45 47 48 47 46 46 45 45 46 46 46 46 45 42 42 43 41 39 40 42 43 42 42 42 43 44 43 44 45 44 44 44 45 45 46 45 45 46 47 47 47 47 48 48 48 49 50 50 50 49 49 50 49 48 46 44 41 41
34 34 35 36 35 35 35 38 42 45 46 46 46 45 44 46 49 48 46 45 45 46 48 48 49 49 47 47 49 48 46 47 49 49 47 47 46 46 48 49 49 48 46 44 44 43 41 41 43 44 43 41 43 46 46 46 45 46 47 47 47 47 47 47 48 48 48 48 49 49 49 49 50 50 50 51 52 53 52 51 52 53 50 49 48 47 46 48
36 36 36 37 37 36 34 35 37 40 44 46 46 45 46 49 51 51 48 48 47 48 48 48 49 50 50 50 51 50 48 49 51 49 48 48 47 48 50 51 51 50 48 48 46 44 43 45 46 46 44 42 45 49 48 47 48 48 50 51 50 49 50 50 50 50 50 50 51 52 52 52 52 52 52 53 54 55 54 54 55 55 52 52 53 52 51 52
37 38 38 38 38 36 35 35 36 36 38 41 42 45 48 50 52 53 52 51 50 48 48 49 51 51 52 52 52 51 50 52 51 50 50 50 49 50 53 53 53 53 52 50 48 46 46 48 48 48 47 46 47 50 50 49 51 52 54 54 52 52 52 52 52 53 52 52 53 54 54 54 54 54 54 56 56 57 56 56 56 56 55 55 56 55 55 54
37 39 40 40 39 37 37 38 37 35 35 34 36 42 47 51 53 54 54 54 53 52 51 52 53 52 52 52 52 52 53 53 52 51 52 53 52 52 55 56 55 55 55 53 51 50 49 49 50 49 50 50 50 51 52 52 53 55 57 56 54 55 55 54 55 56 55 54 55 55 55 56 56 55 55 58 58 59 59 57 56 56 56 58 59 59 57 56
38 40 42 42 40 39 41 40 37 36 34 31 33 39 44 49 53 54 55 56 55 54 54 54 55 55 54 54 53 55 55 55 54 53 53 54 55 54 56 58 57 56 56 54 54 54 51 50 51 51 52 53 54 53 52 55 56 57 59 58 57 57 57 57 57 58 57 56 55 56 57 57 57 56 57 59 59 60 60 58 57 56 56 60 62 60 59 58
39 41 42 42 41 43 43 40 38 37 36 34 35 38 41 45 48 52 54 55 55 54 55 56 57 57 57 56 55 57 58 58 57 57 56 58 60 58 58 61 61 59 57 56 56 55 53 51 52 53 54 56 57 55 54 56 58 59 60 59 59 58 58 58 59 59 58 57 57 58 58 57 57 57 58 59 59 60 59 57 58 57 55 59 62 61 59 59
42 42 42 42 43 45 44 41 39 39 38 38 38 39 41 43 45 47 49 50 51 52 55 58 58 58 58 57 57 59 60 59 60 60 61 63 64 62 62 64 65 63 59 58 58 58 55 53 54 55 58 59 60 58 56 57 60 61 61 60 60 61 61 59 60 61 60 59 59 59 58 57 56 57 58 58 58 59 57 57 59 57 55 59 62 59 58 57
45 44 42 43 45 46 45 43 42 41 40 40 41 42 44 44 45 45 46 46 46 48 54 56 55 56 57 58 60 60 60 60 62 63 64 66 67 66 66 67 66 64 62 61 61 60 59 58 57 59 60 62 62 61 59 61 63 63 63 63 63 63 62 61 60 61 62 60 59 59 58 57 56 57 57 57 58 59 57 57 58 56 55 58 60 58 56 56
47 46 44 45 45 45 45 45 44 43 42 43 45 45 46 46 46 45 45 44 44 46 49 50 50 52 53 54 56 57 59 61 62 63 64 67 68 68 68 67 66 65 64 63 61 61 63 62 60 60 60 61 61 61 61 64 66 63 62 64 63 62 61 61 60 61 61 60 59 58 57 57 56 57 57 57 58 59 58 57 57 55 55 56 58 59 57 55
49 48 47 46 46 46 46 46 46 45 46 46 46 46 47 47 47 47 47 46 46 47 46 46 48 47 46 46 49 51 54 57 60 61 63 66 68 68 68 68 68 66 65 63 62 62 64 63 59 59 58 58 60 60 62 65 66 62 60 60 60 59 60 59 59 60 59 59 59 58 58 57 57 58 58 58 59 59 58 58 58 57 56 57 58 59 58 56
52 51 49 47 48 48 48 48 48 48 48 48 48 48 48 48 49 49 49 49 50 49 46 46 47 43 41 43 46 49 50 52 53 55 58 63 65 65 65 65 64 62 61 62 61 60 60 59 57 56 56 56 58 60 61 63 63 61 59 57 56 58 61 61 61 61 59 59 59 59 59 59 59 59 59 58 59 59 60 60 59 58 58 59 59 59 60 58
54 53 50 49 50 52 52 51 50 49 48 48 50 50 49 49 51 51 52 53 52 50 48 48 47 43 43 45 45 47 49 48 48 50 53 56 59 60 58 54 53 53 54 55 54 54 56 55 54 53 53 53 55 59 61 62 61 61 60 58 57 58 61 63 62 61 60 59 59 60 61 61 60 61 60 59 60 60 60 61 61 59 59 60 61 61 62 61
55 53 52 52 53 55 55 52 50 49 49 49 51 52 51 51 52 54 55 55 52 51 51 49 45 45 47 47 46 47 48 47 47 48 49 50 53 55 52 48 46 46 49 51 50 51 53 53 52 51 50 51 54 56 59 61 60 60 60 59 58 59 61 62 62 62 62 60 59 61 63 62 62 64 63 62 62 62 62 63 62 61 60 62 63 63 64 63
55 54 55 56 56 56 56 54 53 52 52 53 53 53 53 54 55 56 57 55 52 52 52 48 45 48 50 49 47 47 48 47 45 45 45 47 51 52 50 47 45 44 47 51 51 49 49 49 50 50 48 49 51 53 56 59 59 59 58 58 59 60 61 62 63 64 65 62 61 63 64 64 65 67 67 65 64 64 64 65 65 64 64 65 65 65 65 65
53 54 56 57 57 57 56 57 57 56 56 55 54 53 53 54 56 58 58 56 53 52 51 47 46 48 50 49 48 49 48 46 44 43 44 48 52 52 51 49 46 43 45 49 50 48 48 48 49 48 46 47 49 51 53 55 57 57 56 57 58 59 59 60 61 63 64 63 63 65 66 66 67 68 69 68 67 66 66 67 67 68 67 67 67 67 66 66
52 53 55 57 58 58 57 59 61 59 57 56 54 54 54 55 57 59 60 58 54 52 51 47 44 47 51 52 51 50 48 46 46 46 47 51 54 55 54 51 47 43 44 48 48 46 49 51 49 47 46 46 48 50 52 53 53 52 52 55 57 57 56 57 58 61 63 63 63 65 66 66 68 69 69 70 70 69 68 69 70 69 69 68 68 67 67 67
51 52 54 56 58 59 58 60 61 60 58 56 55 57 57 58 59 60 60 59 55 52 50 47 46 50 54 54 52 51 50 48 49 50 51 54 57 57 55 53 50 47 46 48 48 46 49 52 51 49 47 46 47 49 50 50 49 47 50 53 55 55 55 56 57 60 61 61 61 62 63 65 68 68 67 68 69 69 67 69 71 71 70 69 69 69 69 69
50 51 53 55 57 57 57 57 58 58 58 58 58 59 60 60 60 59 59 60 57 54 52 51 52 55 56 55 54 53 52 51 53 54 56 57 59 59 57 55 53 52 51 51 50 49 49 51 53 52 48 46 48 48 48 48 47 47 50 54 54 53 54 54 55 57 58 58 59 60 61 64 67 67 66 66 66 66 66 68 70 71 70 69 68 69 69 69
Wind_Direction
250 250 250 250 250 250 250 250 250 250 250 250 251 251 251 251 252 252 252 252 252 253 253 254 254 254 254 254 254 254 254 254 254 254 254 254 255 255 255 255 256 256 256 257 257 257 258 258 259 259 259 260 260 260 261 261 262 262 263 263 264 264 264 264 265 265 266 267 268 268 269 270 271 271 270 269 270 271 272 273 274 274 275 276 276 276 276 277
249 249 250 250 250 250 250 250 250 251 251 251 251 251 251 252 252 252 252 252 253 253 253 254 254 254 254 254 254 254 254 254 254 254 254 254 255 255 255 256 256 256 257 257 257 258 258 259 259 259 260 260 260 261 261 262 262 263 263 263 264 264 264 265 265 266 266 267 269 269 269 269 270 269 269 270 271 272 272 273 274 275 276 276 276 276 276 276
249 249 249 250 250 250 250 251 251 251 251 251 251 251 251 251 252 252 252 252 253 253 253 254 254 254 254 255 255 255 255 254 254 254 254 254 255 255 255 256 256 257 257 257 258 258 258 259 259 259 260 260 261 261 261 262 262 263 263 264 264 264 264 265 265 266 267 268 270 269 268 268 269 270 270 272 272 272 272 273 275 276 276 276 276 275 275 275
249 249 249 249 250 250 250 251 251 251 251 252 252 252 252 252 252 252 252 252 253 253 253 254 254 254 255 255 255 255 255 255 255 255 255 255 255 255 256 256 256 257 257 257 258 258 258 259 259 260 260 260 261 261 262 262 262 263 263 264 264 264 264 265 265 266 268 268 269 269 268 269 269 270 271 272 272 272 273 274 276 276 276 275 275 274 274 274
249 249 249 249 249 250 250 250 251 251 252 252 252 252 252 252 252 252 252 252 253 253 253 254 254 254 255 255 256 256 256 256 256 256 256 256 256 256 256 256 257 257 257 258 258 258 259 259 260 260 260 260 261 261 262 262 263 263 264 264 264 265 265 266 267 267 268 268 269 269 270 271 271 271 272 272 272 273 275 276 276 275 274 273 273 273 273 273
248 249 249 249 249 249 250 250 250 251 251 252 252 253 253 253 253 253 253 253 253 253 253 254 254 254 255 255 256 256 256 256 257 257 257 257 257 257 257 257 257 257 258 258 259 259 260 260 260 261 261 261 261 262 262 263 263 264 264 265 265 266 267 267 268 268 269 269 270 271 272 272 272 272 272 272 273 274 275 276 276 275 272 271 271 271 272 273
248 248 248 248 249 249 249 250 250 251 251 251 252 252 253 253 253 254 253 253 253 253 254 254 254 254 255 255 256 256 257 257 257 257 257 258 258 258 258 258 258 258 259 259 260 260 260 261 261 261 262 262 263 263 264 264 265 265 266 266 267 268 268 268 269 269 270 270 271 272 272 273 273 273 273 273 273 274 275 276 275 273 272 271 271 271 272 272
248 248 248 248 248 249 249 250 250 250 251 251 252 252 252 253 253 254 254 254 254 254 254 254 254 254 255 255 256 256 257 257 257 258 258 259 259 259 259 260 260 260 260 261 261 261 262 262 263 263 264 264 264 265 265 266 266 267 267 268 268 269 269 269 269 270 270 270 271 272 273 273 273 274 274 273 274 276 275 274 273 273 273 272 271 271 271 271
248 247 247 247 247 248 249 249 250 250 251 251 251 252 252 253 253 254 254 254 254 254 255 255 255 255 255 255 256 256 257 257 258 258 258 259 260 260 260 261 261 261 262 262 262 263 263 264 264 264 265 265 266 266 267 267 267 267 268 269 269 269 270 270 270 270 271 271 271 272 273 273 274 274 273 274 276 276 273 272 272 273 273 272 271 270 270 270
247 247 247 247 247 247 248 248 249 250 250 251 251 252 252 253 253 253 253 254 254 254 255 255 256 256 256 256 256 257 257 257 258 258 259 259 260 260 261 261 262 262 262 263 263 263 264 264 265 265 265 266 267 267 266 267 267 268 269 269 269 269 270 271 271 270 271 271 272 272 273 273 273 273 273 275 277 274 272 272 273 273 272 272 270 269 269 268
247 247 246 246 246 246 247 248 248 249 250 251 251 252 252 253 253 253 253 254 254 254 255 255 256 256 256 256 257 257 258 258 259 259 259 260 260 260 261 262 262 262 263 263 264 264 264 264 265 265 266 266 266 266 267 268 268 268 268 269 269 270 270 270 270 271 272 272 272 272 272 273 272 272 274 277 275 273 273 273 273 273 272 270 268 267 266 265
246 246 246 245 245 245 246 246 247 248 249 250 251 252 252 253 253 253 254 254 254 255 255 255 255 256 256 256 257 257 258 259 259 259 260 260 260 261 261 261 262 262 263 263 264 264 264 265 265 266 266 266 266 267 268 268 268 268 269 269 269 269 269 269 270 272 271 271 271 272 272 272 272 273 275 276 274 274 274 273 273 272 271 268 267 266 264 262
245 245 245 244 244 244 245 246 246 247 248 249 251 252 253 253 254 254 254 255 255 255 255 255 255 256 256 256 256 257 258 258 259 259 259 260 260 260 261 261 262 262 262 263 263 264 264 265 265 265 266 266 266 267 267 267 267 268 268 268 268 268 268 269 271 271 270 270 272 273 272 272 273 274 274 274 273 273 273 273 272 270 269 268 266 263 262 260
245 245 244 244 244 244 245 245 246 247 248 249 251 252 253 254 255 256 256 255 255 255 255 255 255 255 256 256 256 257 257 258 258 259 259 259 260 260 260 261 261 261 262 262 263 263 264 264 264 265 265 265 265 265 265 266 267 266 266 267 268 268 269 270 271 270 270 271 273 273 272 272 272 273 274 275 273 272 271 271 270 270 268 266 265 262 260 258
245 245 244 244 244 244 245 245 246 247 248 249 250 252 253 254 256 257 257 256 256 255 255 255 255 255 255 256 256 256 257 257 258 258 258 259 259 259 260 260 260 260 261 261 262 262 263 263 263 263 263 264 264 264 264 265 265 266 266 267 267 268 269 269 269 269 270 272 272 272 272 272 271 272 275 274 271 270 270 268 268 268 266 264 264 262 259 255
245 245 244 244 244 244 245 245 246 247 248 249 250 251 253 254 256 257 257 257 256 256 256 256 255 255 255 256 256 256 256 257 257 257 258 258 258 259 259 259 259 260 260 260 260 261 261 261 262 262 262 262 262 263 263 264 265 266 267 267 267 267 267 267 267 268 270 271 270 270 271 273 273 273 271 270 271 272 269 268 266 264 263 262 260 259 257 253
245 245 244 244 244 244 245 246 246 247 248 248 250 251 253 254 255 256 257 257 256 256 256 256 256 256 256 256 256 255 256 256 257 257 257 257 257 257 258 258 258 258 258 258 259 259 259 260 260 260 260 261 261 262 263 265 266 266 265 265 264 265 265 266 266 266 269 272 270 269 270 272 274 274 270 267 270 270 266 266 266 264 260 257 255 253 251 249
245 245 244 244 244 244 245 246 246 247 248 248 249 251 252 253 254 255 256 256 256 256 256 256 256 256 256 256 256 255 255 255 256 256 256 256 255 256 256 256 257 257 257 257 257 257 258 258 259 259 260 261 261 262 264 264 263 262 262 263 264 266 266 265 264 263 266 270 270 268 269 272 274 275 273 267 267 267 265 263 265 265 261 255 251 248 245 242
246 245 245 245 245 245 245 246 247 247 248 249 249 251 252 253 254 254 255 255 256 256 256 256 256 256 256 256 256 255 254 255 255 255 255 255 255 255 255 255 256 256 256 257 257 257 257 258 258 259 260 261 261 262 262 260 260 261 262 264 266 266 265 264 262 260 262 265 268 270 270 271 272 274 274 270 266 267 266 262 260 260 260 257 251 246 242 237
247 246 245 245 245 245 246 246 247 247 248 249 249 250 251 252 253 254 255 255 256 255 256 256 256 256 256 256 256 256 255 254 254 255 255 255 255 255 255 255 255 256 256 257 257 257 257 257 258 259 260 260 260 260 260 259 260 261 261 262 264 265 264 264 263 262 260 260 263 269 271 271 271 273 273 271 268 266 264 261 257 255 255 255 251 246 241 235
250 248 247 246 246 246 246 246 247 247 248 249 249 250 251 252 252 253 254 255 255 256 256 257 256 256 256 256 257 256 256 255 255 255 255 255 255 256 256 255 255 256 256 256 257 256 256 257 257 259 259 259 258 257 258 259 259 259 259 260 261 263 263 264 266 264 261 262 262 265 270 271 270 270 271 270 267 264 262 260 256 253 253 253 250 245 240 235
252 250 249 248 247 247 247 247 248 248 248 249 250 250 251 252 252 253 254 255 255 255 256 257 257 256 255 256 257 257 256 256 256 255 256 256 256 256 256 256 256 256 256 256 256 256 256 256 256 257 257 257 256 256 257 258 258 258 258 259 260 261 264 265 266 265 263 266 267 266 266 268 268 269 270 270 267 264 263 261 257 254 254 253 250 248 244 239
254 253 251 250 249 249 248 248 248 249 249 249 250 250 251 251 252 252 253 254 255 255 255 256 256 255 255 256 257 257 256 256 257 256 256 257 256 256 256 257 257 256 256 255 255 256 256 256 256 255 255 255 255 255 255 255 256 258 258 259 260 262 264 265 267 269 268 266 267 266 265 267 269 270 271 270 267 265 264 262 259 253 252 251 251 253 252 247
253 253 252 252 251 250 250 250 250 250 250 250 250 250 251 251 251 252 252 253 254 255 255 255 255 255 254 254 255 256 257 256 257 257 258 257 257 257 257 257 256 255 255 255 255 256 255 255 255 253 252 253 254 254 254 255 255 257 258 259 261 262 264 267 269 270 269 265 264 265 267 270 270 270 270 270 269 268 265 263 261 256 251 248 248 251 253 251
250 251 251 251 252 252 251 251 251 251 251 251 251 251 250 251 251 251 251 252 253 254 254 254 254 254 254 254 255 256 256 255 256 258 259 257 256 257 257 256 255 254 255 255 255 255 254 254 253 252 251 253 254 254 255 255 255 256 257 260 262 263 265 267 268 268 268 267 265 267 270 271 270 270 269 269 270 270 269 266 265 263 258 251 247 248 249 250
250 249 249 250 250 251 252 252 251 251 252 252 252 252 251 251 251 251 251 251 252 252 252 252 253 252 253 254 254 254 254 254 255 256 257 256 255 256 256 255 255 255 254 254 253 254 254 253 252 252 253 254 254 254 255 256 257 257 258 259 261 264 265 267 268 267 266 267 268 269 270 270 270 270 269 269 269 269 269 269 268 267 264 258 252 250 249 249
252 250 249 249 249 250 251 251 251 250 251 252 252 252 253 253 252 251 251 251 250 251 251 252 252 251 251 252 253 252 252 253 253 252 253 256 257 255 255 256 256 256 255 253 253 253 253 251 251 253 254 255 254 255 255 256 257 258 259 259 261 264 265 265 266 266 265 266 269 269 268 269 269 269 269 270 271 269 269 270 269 268 266 263 259 255 253 251
252 251 250 249 249 249 250 251 251 249 249 251 252 251 253 253 253 252 251 249 249 248 248 249 251 250 249 250 251 250 251 253 252 252 253 255 256 255 254 255 256 256 255 254 253 253 252 251 252 255 255 255 256 256 256 256 257 258 259 260 261 262 263 264 265 266 265 266 269 269 266 266 268 269 270 271 272 272 270 269 269 269 268 266 262 260 259 256
253 252 251 250 249 249 249 250 250 250 249 250 250 250 251 252 253 253 251 248 247 247 246 248 251 251 248 247 250 250 251 252 252 252 253 254 254 252 252 253 254 254 254 254 254 254 253 252 252 255 257 257 257 257 257 257 258 258 259 259 259 260 262 264 264 265 265 266 267 268 265 265 268 271 273 273 273 272 271 270 270 270 269 266 264 264 262 260
257 253 251 250 250 249 249 249 249 250 250 250 250 250 251 252 254 255 252 249 248 248 248 249 251 252 248 246 249 251 250 251 251 251 251 253 253 251 251 251 252 254 254 254 256 256 255 255 253 254 256 257 256 256 255 255 255 256 256 258 259 260 261 263 263 264 266 266 266 266 267 268 269 271 274 275 273 272 272 270 269 269 270 270 267 264 261 260
260 256 254 251 250 249 249 249 249 249 249 250 250 250 251 252 253 255 253 250 249 249 249 249 251 252 250 247 248 252 252 252 252 251 250 251 253 252 251 251 252 253 254 253 255 257 257 256 256 255 254 255 256 256 254 253 252 254 256 257 258 259 261 262 264 264 266 266 266 267 270 271 272 271 272 274 274 273 272 271 269 269 272 272 269 264 262 261
262 260 257 254 252 250 249 250 249 249 249 249 250 250 250 251 252 253 253 251 250 249 248 249 250 251 251 250 250 252 254 253 253 252 250 251 253 253 252 252 252 253 253 253 254 256 256 255 256 256 256 255 256 256 256 253 253 255 256 257 258 260 261 263 264 264 265 266 267 270 271 272 271 270 271 272 272 272 271 271 270 270 271 271 270 268 266 265
262 261 259 256 254 251 250 249 249 249 249 249 250 250 250 251 251 250 251 251 250 249 249 250 250 250 251 252 252 251 253 254 254 253 251 251 254 255 254 253 253 253 253 253 254 255 255 255 255 256 257 256 255 256 257 256 256 256 257 257 259 261 262 263 264 265 266 267 268 269 271 271 271 270 271 270 269 270 270 270 270 270 269 269 271 272 272 269
261 261 260 258 255 253 251 250 250 249 249 249 249 249 249 249 250 249 250 250 249 250 250 251 252 251 250 252 254 253 253 255 255 254 252 251 253 256 257 255 254 254 254 253 253 253 254 255 255 255 255 256 257 256 255 256 256 256 257 258 259 261 262 263 264 266 266 266 267 268 269 271 271 271 271 270 270 270 270 270 270 270 270 271 273 274 273 269
262 260 259 258 257 255 253 252 250 249 249 249 248 249 249 249 249 249 249 249 249 249 250 251 253 254 254 254 255 255 254 256 256 255 254 252 252 253 255 256 255 254 254 253 253 254 255 256 255 255 254 255 257 256 255 255 255 256 258 258 257 259 261 262 264 264 265 265 267 267 267 268 269 270 270 270 270 270 271 272 271 271 272 273 273 271 269 267
263 261 259 258 257 255 255 254 252 250 249 249 249 249 249 249 250 250 249 249 249 249 251 253 254 256 256 255 255 256 256 256 257 257 257 255 253 253 254 255 256 255 254 254 253 254 256 256 256 256 256 254 254 256 256 256 256 255 256 257 258 260 261 262 263 263 264 264 265 266 266 266 267 268 268 269 269 269 270 271 271 272 273 272 271 269 268 267
263 262 260 257 256 256 255 254 252 251 250 249 249 249 249 249 250 250 250 249 249 249 251 251 253 254 255 255 256 257 256 256 257 258 258 257 255 255 254 254 255 256 255 255 256 256 256 257 257 258 257 255 254 256 257 257 257 257 257 258 260 261 261 262 263 263 263 263 264 265 266 266 266 267 268 268 268 268 269 269 270 272 272 270 269 268 267 266
262 261 260 258 256 255 254 252 252 252 251 251 250 249 249 249 249 249 249 249 248 247 248 250 252 253 255 256 257 258 257 257 257 256 257 258 257 256 256 255 254 255 257 257 257 256 256 257 258 259 259 258 256 257 258 258 258 259 259 260 261 261 262 262 263 263 263 263 264 266 266 266 266 267 268 268 268 268 267 267 268 268 269 268 267 266 266 266
262 261 260 259 257 255 253 252 252 252 251 250 249 248 248 248 249 249 249 249 249 248 248 249 251 252 254 255 257 258 258 258 258 258 258 259 258 257 257 258 256 255 256 257 257 257 257 258 260 260 260 260 258 257 258 259 259 259 261 261 261 262 263 263 262 263 263 264 264 265 265 266 268 268 268 268 268 268 268 267 266 265 265 266 266 266 266 266
262 260 259 259 257 255 253 251 251 251 249 247 246 247 248 248 249 249 249 250 250 250 250 249 250 251 252 254 256 258 259 259 260 260 259 259 258 257 258 260 259 258 257 258 259 259 259 260 261 261 260 260 259 258 257 259 261 261 261 262 262 262 261 262 263 263 264 264 264 264 265 266 268 268 267 267 266 267 267 268 266 263 263 263 264 265 266 266
263 260 259 259 257 256 254 251 249 249 248 247 245 246 248 248 249 250 250 250 251 251 251 250 250 250 251 252 253 254 257 259 260 260 259 259 260 259 258 259 260 260 260 261 261 261 261 260 261 261 261 261 261 260 259 260 261 261 261 262 262 262 262 262 264 265 265 265 265 265 266 267 267 266 266 266 265 265 265 264 264 264 263 263 264 265 265 266
262 260 258 257 257 256 255 253 250 248 247 247 246 245 245 247 248 249 250 251 250 250 250 251 251 251 251 251 251 252 254 257 258 260 261 261 262 261 261 261 262 263 263 262 263 263 263 261 260 260 261 263 264 264 263 261 260 260 261 262 262 263 265 265 265 265 266 266 266 266 266 266 265 264 264 264 264 264 263 262 264 265 265 265 266 267 266 266
262 260 257 256 256 256 256 254 251 248 246 245 245 245 246 247 248 249 250 250 249 249 249 251 252 251 251 251 252 253 254 255 257 259 261 262 263 263 264 264 264 264 264 263 263 264 263 261 260 261 262 264 265 265 264 262 260 260 262 263 264 266 267 266 265 265 265 266 265 265 265 264 263 263 263 262 263 264 264 264 264 265 265 265 267 268 268 268
261 259 257 256 256 255 255 254 252 250 248 246 246 247 248 249 249 249 250 249 249 248 249 250 251 251 253 255 255 254 253 253 254 256 258 259 261 262 263 265 265 266 267 267 265 264 264 264 263 262 263 263 264 264 263 263 263 263 263 265 266 266 265 264 264 264 264 265 265 265 265 264 263 263 263 263 263 264 264 264 265 265 265 265 266 268 269 269
260 258 257 256 256 255 253 253 251 249 248 248 247 247 248 249 249 249 249 249 248 248 248 249 250 251 251 252 252 252 252 252 253 254 255 257 259 260 261 263 266 268 269 269 268 267 266 266 265 263 262 261 262 262 262 263 264 264 262 262 263 263 263 263 262 263 264 265 266 266 265 265 264 264 264 264 264 264 264 265 265 266 266 266 266 267 267 267
258 257 256 255 254 254 251 250 250 250 250 249 249 248 248 249 250 250 249 249 249 249 248 249 250 250 250 249 250 252 253 253 253 254 255 258 261 262 263 264 266 268 268 268 268 268 268 267 265 263 262 261 260 261 262 262 262 262 262 261 260 261 262 264 264 264 264 264 265 265 265 265 266 265 265 264 264 264 264 265 265 265 266 266 266 266 267 267
257 256 255 253 252 252 252 250 249 250 250 249 248 248 248 248 249 250 250 250 250 251 250 250 251 252 251 250 250 252 253 254 255 256 259 261 264 266 267 268 268 268 268 268 267 266 266 267 267 265 263 261 261 261 262 263 262 262 262 262 260 259 260 262 263 263 262 262 263 264 264 265 265 264 263 262 262 263 264 264 264 264 263 264 264 265 266 267
256 254 253 252 250 251 252 252 249 247 247 246 247 247 248 249 250 251 251 251 251 252 252 252 252 252 252 253 253 254 255 256 257 260 264 265 265 265 266 265 263 263 264 265 266 266 266 267 267 266 265 263 262 261 262 263 263 263 262 261 260 259 258 258 260 261 263 263 262 262 262 263 264 264 264 263 262 262 263 263 264 263 262 262 263 264 265 267
254 253 252 252 251 249 250 251 250 247 246 246 246 248 249 250 251 253 253 253 252 253 254 253 253 256 257 256 255 255 255 257 259 260 262 263 262 262 261 260 259 259 261 262 264 267 268 266 264 264 264 263 262 261 260 260 261 261 262 262 261 260 260 260 260 261 262 262 261 260 261 261 262 262 263 264 263 262 262 263 263 264 264 264 265 266 267 268
253 252 251 251 251 249 248 248 249 248 247 247 247 248 248 248 250 252 253 253 253 254 256 256 257 259 259 257 255 254 255 256 257 257 257 258 259 259 260 260 259 258 258 260 261 263 264 264 263 262 261 260 260 260 260 260 260 262 263 263 263 263 262 261 260 260 260 260 259 260 261 261 261 261 262 263 264 263 263 264 264 265 266 266 267 268 268 268
253 251 250 250 250 249 248 248 249 250 250 249 248 248 247 247 248 251 253 255 255 255 256 257 257 256 257 257 257 256 255 254 255 255 255 256 258 259 259 260 260 258 256 257 258 259 260 263 264 263 261 260 259 259 260 261 263 264 263 262 262 262 261 260 259 259 260 261 261 261 262 262 262 262 262 262 263 264 264 265 265 265 265 265 266 267 267 268
253 251 250 250 250 251 250 250 251 251 251 250 248 248 248 248 249 251 254 255 255 254 253 253 252 253 254 255 256 256 255 254 253 253 254 255 257 258 259 260 262 261 259 258 258 258 258 260 263 263 262 262 262 261 261 262 263 263 261 260 260 261 262 262 262 262 262 262 261 261 261 260 260 261 262 262 263 265 265 266 266 266 267 267 267 267 267 267
Height
10636 10638 10640 10643 10645 10648 10650 10652 10654 10657 10659 10661 10664 10666 10668 10670 10672 10674 10676 10678 10681 10683 10686 10688 10690 10692 10695 10697 10699 10702 10704 10707 10708 10710 10713 10715 10715 10718 10721 10721 10723 10726 10727 10730 10732 10733 10735 10736 10737 10739 10741 10743 10744 10746 10747 10747 10749 10751 10753 10756 10757 10754 10754 10755 10752 10750 10744 10742 10746 10756 10766 10760 10759 10760 10754 10752 10756 10755 10737 10736 10763 10775 10776 10774 10767 10766 10765 10768
10628 10631 10633 10636 10638 10641 10643 10645 10647 10650 10652 10654 10656 10658 10661 10663 10665 10667 10669 10672 10674 10677 10679 10681 10684 10686 10688 10690 10693 10695 10698 10700 10701 10702 10705 10707 10708 10711 10712 10714 10716 10717 10720 10722 10724 10725 10727 10728 10730 10731 10733 10735 10736 10738 10739 10739 10742 10743 10745 10748 10747 10744 10746 10747 10744 10739 10736 10741 10742 10748 10756 10750 10750 10744 10740 10747 10749 10750 10734 10727 10753 10767 10769 10765 10758 10755 10754 10760
10621 10624 10627 10629 10632 10634 10636 10638 10641 10643 10645 10647 10649 10651 10653 10656 10658 10660 10662 10665 10668 10670 10672 10674 10677 10679 10682 10684 10687 10689 10691 10692 10692 10695 10698 10699 10701 10704 10705 10707 10709 10710 10713 10714 10715 10717 10718 10720 10722 10723 10725 10727 10727 10729 10731 10732 10734 10733 10738 10739 10735 10734 10738 10738 10735 10731 10732 10739 10736 10734 10739 10740 10743 10733 10731 10743 10739 10737 10727 10724 10749 10759 10758 10755 10748 10742 10744 10752
10615 10618 10620 10622 10625 10627 10629 10632 10634 10636 10638 10640 10642 10644 10646 10648 10651 10653 10656 10658 10661 10663 10665 10667 10670 10673 10675 10678 10680 10682 10684 10684 10685 10688 10691 10692 10694 10696 10698 10700 10701 10703 10705 10706 10707 10709 10710 10712 10713 10715 10717 10718 10718 10721 10723 10723 10725 10725 10729 10730 10725 10726 10730 10728 10726 10726 10728 10734 10726 10717 10722 10732 10738 10726 10726 10736 10724 10724 10722 10723 10743 10749 10747 10745 10735 10729 10735 10744
10609 10611 10613 10616 10618 10620 10623 10625 10627 10629 10631 10633 10635 10637 10639 10641 10643 10646 10649 10651 10654 10656 10658 10660 10663 10666 10668 10671 10674 10675 10677 10676 10677 10681 10683 10685 10687 10689 10691 10693 10694 10695 10696 10697 10699 10701 10702 10704 10705 10707 10708 10710 10711 10713 10714 10714 10717 10717 10719 10719 10716 10717 10721 10720 10719 10721 10722 10722 10714 10707 10712 10721 10727 10719 10721 10724 10712 10717 10721 10717 10730 10736 10735 10734 10725 10719 10726 10735
10602 10605 10607 10609 10612 10614 10616 10618 10621 10623 10625 10627 10628 10630 10632 10634 10636 10639 10641 10644 10646 10648 10650 10653 10656 10659 10662 10665 10667 10668 10670 10669 10671 10675 10676 10678 10679 10681 10683 10685 10686 10687 10689 10690 10691 10692 10694 10696 10697 10699 10699 10701 10703 10704 10705 10706 10708 10709 10708 10708 10709 10709 10713 10713 10709 10712 10715 10711 10704 10701 10704 10709 10714 10710 10711 10711 10705 10716 10719 10710 10715 10720 10721 10723 10718 10712 10717 10726
10596 10598 10601 10603 10606 10608 10610 10612 10614 10616 10618 10620 10622 10624 10626 10628 10630 10632 10634 10637 10639 10641 10643 10646 10649 10652 10655 10657 10659 10661 10662 10661 10664 10668 10669 10671 10672 10674 10676 10677 10679 10680 10681 10683 10684 10685 10686 10687 10689 10690 10691 10693 10694 10696 10697 10697 10699 10700 10699 10699 10700 10701 10703 10703 10701 10703 10706 10703 10697 10693 10695 10699 10702 10700 10700 10698 10699 10713 10715 10704 10701 10703 10707 10712 10711 10707 10711 10719
10590 10592 10595 10597 10600 10602 10604 10606 10608 10610 10612 10613 10615 10617 10619 10621 10623 10625 10628 10630 10632 10634 10636 10639 10642 10645 10647 10650 10652 10654 10654 10654 10657 10660 10663 10664 10665 10667 10669 10670 10671 10673 10674 10675 10676 10677 10678 10679 10681 10682 10683 10684 10686 10688 10689 10689 10690 10691 10691 10690 10691 10692 10692 10694 10695 10695 10695 10695 10691 10687 10688 10691 10691 10692 10690 10685 10694 10709 10705 10694 10690 10692 10698 10702 10702 10700 10703 10711
10584 10586 10589 10591 10593 10596 10598 10600 10602 10603 10605 10607 10609 10611 10613 10615 10617 10619 10621 10623 10625 10627 10629 10632 10635 10637 10640 10642 10645 10645 10646 10648 10650 10653 10656 10657 10658 10660 10662 10663 10664 10666 10667 10668 10669 10669 10670 10672 10673 10674 10675 10676 10678 10680 10680 10680 10680 10682 10683 10682 10682 10683 10683 10684 10687 10686 10685 10686 10684 10682 10682 10682 10683 10683 10678 10678 10693 10700 10689 10683 10682 10685 10690 10692 10694 10692 10696 10703
10578 10580 10583 10585 10588 10590 10592 10594 10596 10597 10599 10601 10603 10605 10607 10609 10611 10613 10614 10616 10618 10620 10622 10625 10628 10630 10633 10635 10637 10637 10638 10641 10643 10645 10648 10650 10652 10653 10655 10656 10657 10658 10659 10660 10661 10662 10663 10664 10664 10665 10667 10669 10672 10671 10670 10672 10673 10675 10676 10673 10673 10675 10677 10676 10676 10677 10678 10677 10676 10676 10675 10674 10675 10672 10669 10677 10688 10684 10677 10677 10675 10678 10683 10685 10685 10685 10690 10695
10572 10575 10577 10580 10582 10584 10586 10588 10590 10592 10593 10595 10597 10599 10601 10603 10604 10606 10608 10609 10611 10614 10616 10619 10621 10623 10626 10628 10629 10630 10631 10633 10636 10638 10640 10642 10644 10646 10647 10648 10650 10651 10652 10653 10653 10655 10655 10656 10657 10657 10660 10663 10663 10662 10663 10665 10666 10666 10667 10665 10666 10669 10669 10667 10666 10669 10670 10669 10669 10670 10667 10666 10666 10663 10667 10677 10677 10671 10670 10671 10667 10670 10676 10676 10675 10678 10683 10686
10567 10569 10571 10574 10576 10579 10581 10582 10584 10586 10588 10589 10591 10593 10595 10597 10598 10600 10601 10603 10605 10608 10610 10612 10614 10616 10619 10621 10622 10623 10624 10626 10628 10631 10632 10634 10636 10638 10640 10641 10642 10643 10644 10645 10646 10647 10647 10648 10650 10651 10654 10654 10653 10656 10657 10657 10657 10658 10660 10658 10658 10661 10660 10658 10661 10662 10661 10660 10662 10663 10659 10658 10658 10657 10665 10670 10666 10664 10665 10664 10661 10663 10667 10667 10668 10671 10674 10677
10561 10563 10566 10568 10571 10573 10575 10577 10578 10580 10582 10584 10586 10588 10589 10591 10592 10594 10595 10597 10599 10602 10604 10606 10608 10610 10612 10613 10615 10616 10618 10619 10621 10623 10625 10626 10628 10630 10632 10633 10634 10635 10636 10637 10638 10639 10640 10641 10643 10645 10646 10645 10647 10650 10648 10648 10650 10652 10652 10650 10650 10652 10652 10653 10656 10655 10651 10653 10657 10656 10651 10651 10652 10651 10660 10663 10659 10660 10659 10656 10655 10656 10658 10658 10661 10664 10665 10669
10556 10558 10560 10563 10565 10568 10569 10571 10573 10575 10577 10579 10581 10582 10583 10585 10587 10588 10590 10592 10593 10596 10598 10600 10602 10603 10605 10606 10608 10610 10611 10612 10614 10615 10617 10619 10621 10622 10624 10626 10627 10628 10629 10630 10631 10632 10633 10634 10636 10638 10638 10638 10640 10641 10640 10641 10643 10644 10644 10643 10643 10644 10646 10649 10650 10645 10643 10649 10653 10648 10642 10645 10647 10645 10654 10657 10652 10655 10655 10651 10649 10649 10652 10652 10653 10656 10659 10662
10550 10553 10555 10558 10560 10562 10564 10565 10567 10569 10571 10573 10575 10577 10578 10580 10581 10583 10585 10586 10588 10590 10592 10594 10596 10597 10599 10600 10602 10604 10605 10606 10607 10608 10610 10612 10614 10615 10617 10618 10620 10621 10622 10623 10624 10625 10626 10628 10629 10630 10631 10632 10633 10632 10634 10635 10635 10637 10638 10636 10636 10638 10640 10644 10643 10637 10638 10645 10648 10641 10635 10638 10640 10641 10650 10649 10644 10649 10650 10647 10646 10644 10646 10647 10647 10649 10652 10656
10545 10547 10550 10552 10554 10556 10558 10560 10562 10564 10566 10568 10569 10571 10572 10575 10577 10578 10579 10581 10583 10584 10587 10589 10590 10592 10593 10594 10597 10599 10599 10600 10600 10602 10604 10606 10608 10609 10610 10611 10613 10614 10616 10617 10618 10619 10620 10621 10622 10623 10624 10625 10626 10626 10628 10629 10629 10631 10632 10630 10630 10631 10634 10636 10636 10633 10632 10639 10641 10635 10630 10631 10632 10637 10645 10643 10639 10645 10645 10642 10642 10641 10642 10644 10644 10644 10646 10649
10540 10542 10544 10547 10549 10551 10552 10554 10556 10558 10560 10562 10564 10565 10568 10570 10572 10573 10574 10576 10577 10579 10582 10583 10584 10586 10588 10588 10591 10593 10593 10594 10595 10596 10598 10600 10601 10603 10604 10605 10606 10608 10609 10611 10612 10613 10614 10615 10616 10617 10618 10618 10620 10621 10622 10624 10625 10626 10626 10623 10621 10624 10628 10629 10631 10631 10628 10632 10634 10629 10626 10627 10626 10629 10637 10640 10637 10639 10640 10638 10637 10637 10639 10641 10641 10641 10642 10643
10535 10537 10539 10541 10543 10545 10546 10548 10550 10553 10554 10556 10558 10560 10563 10565 10566 10568 10569 10570 10572 10575 10577 10578 10579 10582 10582 10583 10585 10586 10587 10588 10589 10590 10592 10594 10596 10597 10599 10600 10601 10602 10604 10605 10606 10607 10608 10609 10611 10611 10612 10613 10615 10616 10618 10619 10619 10618 10619 10616 10615 10618 10622 10622 10625 10628 10627 10627 10626 10623 10623 10624 10623 10623 10628 10634 10634 10633 10635 10635 10634 10633 10633 10636 10638 10638 10639 10640
10530 10532 10534 10536 10538 10539 10541 10542 10545 10547 10548 10551 10553 10555 10557 10559 10561 10563 10563 10565 10568 10570 10571 10572 10574 10577 10578 10578 10579 10580 10582 10583 10584 10585 10586 10588 10590 10592 10594 10595 10596 10597 10598 10599 10600 10602 10603 10604 10605 10606 10607 10608 10610 10611 10611 10612 10611 10613 10614 10612 10610 10612 10613 10614 10618 10624 10626 10624 10620 10617 10619 10621 10619 10618 10620 10627 10630 10629 10630 10631 10631 10630 10629 10631 10633 10634 10636 10637
10525 10527 10528 10530 10532 10534 10535 10536 10539 10541 10543 10545 10547 10550 10551 10554 10556 10557 10558 10560 10563 10565 10566 10567 10569 10572 10573 10573 10573 10574 10577 10578 10579 10580 10581 10583 10585 10587 10588 10590 10591 10592 10593 10594 10595 10596 10597 10599 10600 10601 10602 10603 10604 10605 10604 10605 10606 10608 10609 10607 10606 10606 10606 10606 10610 10619 10623 10620 10617 10614 10613 10616 10616 10615 10615 10620 10624 10624 10627 10628 10627 10627 10626 10626 10628 10629 10631 10633
10520 10522 10523 10525 10526 10528 10529 10531 10533 10535 10537 10540 10542 10544 10546 10548 10551 10551 10553 10555 10557 10559 10561 10561 10564 10567 10568 10568 10568 10569 10571 10573 10574 10575 10576 10578 10580 10581 10582 10584 10585 10587 10587 10589 10589 10589 10591 10594 10595 10597 10597 10596 10597 10599 10598 10599 10601 10602 10603 10603 10602 10600 10598 10601 10604 10612 10617 10614 10613 10612 10609 10610 10612 10612 10611 10615 10618 10619 10622 10623 10623 10623 10623 10624 10625 10625 10627 10629
10516 10517 10518 10520 10521 10522 10524 10525 10527 10529 10532 10534 10536 10538 10540 10543 10545 10546 10548 10550 10551 10554 10555 10556 10559 10561 10562 10562 10562 10564 10566 10568 10569 10570 10571 10573 10575 10575 10576 10578 10580 10581 10582 10583 10583 10583 10586 10588 10590 10592 10590 10588 10591 10593 10593 10595 10596 10596 10597 10598 10597 10594 10594 10597 10599 10605 10612 10609 10607 10607 10605 10605 10607 10607 10608 10610 10611 10613 10617 10618 10619 10620 10619 10620 10621 10622 10623 10625
10511 10512 10514 10515 10516 10517 10518 10520 10521 10524 10526 10528 10531 10532 10534 10537 10539 10540 10542 10544 10546 10548 10550 10551 10553 10555 10556 10557 10556 10558 10561 10563 10563 10564 10565 10568 10569 10569 10570 10572 10575 10575 10575 10577 10577 10578 10580 10582 10585 10587 10583 10581 10586 10588 10588 10590 10590 10591 10592 10592 10591 10590 10590 10592 10594 10600 10605 10605 10601 10598 10599 10601 10602 10604 10604 10603 10604 10608 10612 10611 10613 10616 10616 10616 10618 10619 10619 10620
10507 10508 10509 10510 10511 10512 10513 10514 10516 10518 10520 10523 10525 10526 10529 10530 10532 10535 10537 10538 10540 10542 10544 10546 10546 10548 10550 10551 10551 10552 10556 10557 10558 10559 10560 10562 10563 10563 10565 10567 10567 10568 10569 10571 10572 10572 10574 10577 10580 10580 10576 10577 10581 10582 10583 10585 10586 10587 10587 10586 10585 10585 10586 10587 10592 10595 10596 10596 10594 10592 10595 10597 10597 10599 10599 10597 10598 10602 10605 10604 10605 10609 10610 10613 10616 10615 10614 10616
10502 10503 10504 10505 10506 10507 10508 10510 10512 10514 10516 10518 10519 10520 10523 10524 10526 10529 10531 10533 10535 10536 10538 10539 10539 10541 10543 10545 10546 10548 10550 10551 10552 10554 10554 10555 10556 10557 10560 10560 10560 10562 10564 10567 10567 10566 10569 10572 10573 10571 10570 10573 10576 10577 10578 10580 10581 10582 10582 10582 10580 10580 10581 10583 10586 10590 10588 10587 10587 10589 10592 10591 10591 10593 10593 10592 10594 10596 10598 10598 10598 10600 10603 10608 10612 10611 10610 10611
10497 10498 10499 10501 10501 10502 10504 10505 10507 10510 10511 10512 10513 10515 10517 10518 10521 10523 10526 10529 10529 10530 10531 10532 10532 10534 10537 10540 10541 10542 10543 10544 10547 10550 10547 10546 10550 10553 10553 10553 10554 10556 10559 10561 10561 10561 10564 10568 10567 10565 10566 10570 10571 10572 10573 10575 10575 10576 10577 10577 10575 10575 10577 10578 10580 10584 10583 10580 10581 10586 10588 10585 10586 10587 10586 10587 10591 10592 10593 10592 10592 10593 10595 10600 10605 10605 10605 10606
10492 10493 10495 10496 10497 10498 10499 10501 10503 10505 10506 10506 10508 10510 10511 10513 10516 10518 10522 10524 10523 10524 10525 10526 10525 10527 10533 10534 10533 10535 10536 10538 10542 10544 10541 10540 10545 10548 10547 10547 10549 10551 10554 10556 10556 10557 10560 10563 10562 10561 10563 10564 10566 10567 10568 10570 10570 10571 10571 10571 10572 10572 10572 10573 10574 10577 10577 10576 10576 10581 10582 10580 10581 10581 10580 10583 10585 10587 10589 10587 10586 10586 10587 10593 10598 10599 10599 10600
10487 10488 10489 10490 10492 10493 10494 10496 10498 10499 10501 10502 10504 10505 10506 10508 10510 10513 10517 10518 10517 10518 10519 10519 10518 10521 10529 10529 10526 10528 10531 10533 10536 10537 10537 10537 10539 10542 10542 10543 10544 10545 10548 10550 10551 10552 10555 10558 10558 10557 10557 10560 10562 10562 10563 10565 10565 10566 10565 10566 10568 10567 10566 10568 10570 10570 10571 10572 10572 10574 10576 10576 10576 10575 10575 10578 10581 10581 10584 10583 10581 10581 10581 10586 10592 10594 10594 10595
10482 10483 10484 10485 10487 10488 10489 10491 10492 10494 10496 10497 10499 10500 10502 10504 10506 10508 10512 10511 10511 10512 10513 10514 10513 10516 10523 10523 10520 10523 10526 10528 10530 10532 10532 10532 10533 10535 10536 10538 10539 10540 10543 10544 10545 10547 10550 10553 10555 10554 10552 10555 10557 10556 10558 10561 10561 10561 10559 10560 10562 10562 10562 10564 10565 10564 10565 10568 10568 10566 10568 10571 10572 10571 10569 10573 10576 10575 10578 10578 10576 10575 10575 10579 10586 10589 10589 10589
10477 10478 10479 10480 10481 10483 10484 10485 10487 10489 10491 10492 10494 10496 10498 10500 10502 10504 10505 10505 10505 10507 10510 10511 10509 10511 10517 10517 10515 10517 10521 10522 10524 10527 10528 10526 10527 10529 10531 10533 10534 10535 10538 10540 10540 10541 10545 10548 10550 10550 10548 10549 10550 10551 10554 10556 10555 10554 10554 10555 10557 10557 10558 10559 10560 10560 10560 10563 10562 10559 10562 10567 10569 10568 10566 10567 10568 10570 10572 10572 10571 10570 10568 10574 10580 10582 10583 10585
10473 10473 10473 10475 10476 10477 10478 10479 10481 10484 10485 10487 10489 10491 10494 10495 10498 10499 10498 10499 10501 10503 10505 10505 10504 10507 10510 10511 10511 10513 10515 10517 10518 10521 10523 10521 10521 10524 10526 10528 10529 10530 10532 10535 10535 10537 10540 10543 10544 10544 10544 10545 10545 10546 10549 10550 10549 10549 10550 10551 10552 10552 10553 10555 10555 10555 10556 10557 10556 10555 10557 10561 10565 10564 10562 10561 10561 10564 10566 10565 10566 10566 10564 10567 10571 10573 10577 10583
10469 10469 10469 10470 10470 10471 10472 10473 10476 10478 10479 10482 10484 10486 10489 10491 10494 10492 10491 10495 10497 10497 10498 10499 10499 10502 10503 10504 10507 10508 10509 10510 10512 10515 10517 10517 10516 10518 10520 10522 10524 10525 10526 10529 10532 10533 10535 10538 10539 10538 10539 10541 10541 10542 10543 10544 10544 10545 10546 10546 10547 10547 10549 10550 10550 10550 10552 10552 10551 10552 10552 10555 10558 10558 10558 10557 10555 10557 10560 10558 10559 10562 10561 10560 10561 10566 10573 10579
10464 10464 10464 10465 10464 10465 10466 10468 10470 10472 10474 10476 10479 10481 10485 10488 10487 10485 10485 10490 10491 10491 10492 10493 10494 10496 10498 10498 10500 10502 10503 10504 10505 10509 10511 10511 10512 10512 10514 10517 10518 10519 10520 10525 10527 10527 10529 10532 10534 10534 10534 10536 10536 10537 10538 10538 10540 10541 10539 10540 10542 10543 10544 10544 10544 10545 10547 10547 10547 10548 10548 10549 10550 10551 10552 10552 10549 10551 10553 10553 10553 10555 10555 10554 10556 10560 10567 10571
10460 10460 10460 10459 10459 10460 10461 10462 10464 10466 10469 10471 10473 10476 10480 10482 10479 10478 10481 10484 10485 10486 10487 10487 10487 10489 10492 10493 10494 10496 10499 10498 10499 10502 10504 10506 10508 10508 10508 10510 10512 10512 10515 10520 10521 10521 10524 10528 10529 10529 10529 10531 10532 10532 10532 10533 10535 10534 10533 10536 10537 10536 10538 10539 10539 10540 10542 10542 10542 10543 10543 10543 10544 10544 10545 10544 10543 10545 10546 10547 10547 10547 10548 10550 10553 10557 10560 10560
10455 10455 10455 10454 10455 10456 10456 10457 10458 10461 10463 10465 10468 10471 10474 10474 10471 10472 10475 10478 10479 10480 10480 10482 10482 10483 10486 10488 10488 10490 10494 10493 10492 10494 10497 10500 10504 10504 10503 10503 10505 10506 10510 10513 10515 10517 10521 10522 10523 10522 10525 10528 10527 10524 10525 10527 10528 10529 10528 10529 10530 10531 10532 10533 10534 10535 10535 10536 10536 10537 10538 10538 10537 10538 10538 10537 10537 10537 10539 10541 10540 10540 10543 10546 10548 10551 10552 10549
10450 10450 10449 10449 10450 10451 10452 10452 10453 10455 10457 10459 10463 10466 10467 10466 10464 10466 10469 10471 10473 10474 10476 10478 10478 10478 10479 10481 10481 10484 10488 10487 10486 10488 10491 10493 10497 10498 10497 10497 10497 10500 10503 10506 10509 10513 10516 10515 10516 10517 10520 10524 10521 10517 10519 10522 10522 10523 10522 10520 10524 10527 10527 10527 10528 10528 10529 10530 10530 10530 10531 10531 10531 10532 10532 10531 10530 10530 10533 10534 10532 10534 10538 10540 10539 10542 10543 10541
10445 10444 10444 10444 10445 10447 10448 10447 10448 10450 10452 10454 10458 10460 10460 10459 10458 10459 10462 10464 10467 10470 10472 10472 10471 10472 10473 10473 10475 10478 10480 10480 10481 10484 10484 10485 10489 10490 10489 10490 10491 10492 10495 10499 10504 10508 10509 10509 10510 10512 10514 10516 10515 10512 10514 10516 10515 10515 10514 10514 10519 10520 10520 10521 10521 10521 10523 10524 10523 10523 10524 10524 10525 10526 10526 10524 10524 10525 10526 10527 10528 10529 10531 10531 10531 10532 10533 10534
10440 10438 10437 10438 10440 10442 10442 10441 10443 10446 10448 10451 10453 10452 10452 10451 10450 10452 10454 10456 10460 10463 10465 10465 10465 10466 10467 10468 10470 10471 10471 10473 10475 10478 10478 10478 10481 10483 10481 10482 10485 10486 10488 10493 10497 10500 10502 10503 10504 10506 10506 10508 10509 10508 10508 10509 10509 10507 10505 10508 10512 10511 10512 10515 10514 10514 10516 10518 10518 10517 10517 10517 10518 10521 10520 10517 10517 10518 10518 10522 10524 10525 10524 10522 10520 10522 10525 10527
10434 10433 10431 10432 10435 10435 10434 10437 10440 10441 10444 10446 10446 10444 10443 10443 10443 10445 10446 10448 10452 10455 10458 10459 10459 10460 10461 10462 10463 10463 10464 10466 10468 10470 10473 10472 10472 10476 10474 10472 10476 10480 10482 10486 10489 10491 10496 10498 10499 10500 10499 10499 10500 10502 10503 10501 10500 10500 10499 10501 10504 10504 10506 10507 10506 10507 10509 10511 10512 10511 10510 10511 10512 10514 10513 10511 10510 10509 10510 10514 10517 10519 10519 10513 10510 10514 10517 10519
10428 10427 10426 10427 10429 10427 10428 10433 10435 10436 10438 10439 10439 10437 10436 10436 10437 10437 10439 10441 10445 10449 10451 10452 10452 10453 10455 10457 10458 10457 10456 10459 10460 10462 10465 10463 10463 10468 10468 10464 10467 10471 10475 10480 10482 10485 10491 10493 10493 10492 10491 10490 10490 10494 10497 10494 10492 10493 10492 10493 10495 10496 10498 10498 10498 10499 10501 10504 10505 10503 10504 10505 10506 10505 10504 10504 10503 10501 10502 10505 10506 10511 10513 10505 10502 10506 10510 10511
10421 10420 10421 10422 10422 10421 10422 10427 10429 10430 10432 10433 10433 10432 10430 10430 10431 10431 10433 10435 10439 10442 10442 10443 10445 10446 10449 10452 10452 10450 10450 10452 10453 10454 10455 10454 10453 10458 10461 10458 10458 10463 10469 10473 10475 10478 10483 10486 10486 10483 10481 10480 10481 10485 10490 10489 10485 10484 10484 10486 10486 10486 10489 10492 10492 10491 10493 10496 10497 10496 10497 10499 10499 10497 10495 10495 10496 10495 10496 10496 10495 10501 10504 10498 10495 10500 10503 10505
10413 10414 10415 10415 10414 10415 10417 10420 10422 10424 10426 10426 10425 10425 10424 10424 10425 10426 10427 10429 10433 10435 10433 10434 10438 10440 10442 10444 10443 10444 10446 10447 10446 10446 10446 10445 10445 10448 10451 10452 10453 10457 10462 10465 10468 10470 10472 10475 10477 10475 10473 10473 10474 10477 10481 10479 10475 10475 10476 10478 10478 10479 10482 10486 10486 10484 10484 10487 10489 10489 10490 10491 10490 10488 10487 10488 10487 10486 10487 10488 10488 10492 10495 10491 10489 10493 10497 10499
10405 10407 10408 10408 10408 10410 10411 10413 10415 10417 10418 10418 10417 10418 10418 10419 10420 10420 10421 10424 10426 10426 10426 10429 10431 10432 10434 10436 10437 10440 10441 10441 10440 10441 10440 10437 10436 10439 10442 10444 10446 10449 10452 10456 10461 10461 10460 10463 10468 10468 10468 10468 10467 10468 10468 10464 10463 10469 10471 10470 10473 10476 10476 10477 10477 10476 10477 10479 10480 10481 10481 10482 10481 10480 10481 10481 10479 10478 10479 10481 10482 10485 10486 10485 10483 10485 10489 10492
10398 10399 10401 10402 10402 10403 10404 10405 10407 10409 10410 10410 10412 10413 10413 10414 10415 10415 10415 10417 10418 10418 10421 10423 10423 10425 10429 10431 10432 10432 10434 10435 10435 10435 10434 10430 10429 10432 10435 10436 10437 10441 10444 10446 10451 10452 10449 10453 10459 10462 10462 10462 10459 10457 10456 10452 10454 10463 10466 10465 10467 10468 10466 10467 10467 10468 10470 10471 10471 10472 10472 10473 10473 10472 10473 10474 10472 10472 10472 10473 10475 10477 10479 10479 10478 10478 10481 10483
10389 10391 10394 10395 10395 10396 10396 10397 10399 10401 10403 10404 10405 10406 10407 10407 10408 10408 10408 10409 10409 10412 10416 10417 10417 10421 10424 10424 10424 10424 10425 10428 10429 10429 10428 10424 10422 10426 10429 10430 10432 10436 10438 10437 10439 10442 10442 10445 10450 10452 10453 10454 10451 10447 10446 10445 10447 10453 10457 10459 10460 10457 10455 10457 10459 10460 10463 10463 10463 10463 10462 10463 10465 10464 10465 10466 10465 10465 10465 10466 10468 10470 10471 10471 10472 10471 10472 10474
10379 10382 10386 10388 10387 10386 10386 10388 10391 10394 10396 10398 10398 10399 10400 10401 10400 10401 10401 10401 10402 10406 10409 10410 10412 10416 10416 10416 10418 10418 10418 10421 10423 10423 10421 10419 10417 10418 10422 10426 10429 10431 10431 10429 10432 10434 10433 10435 10439 10441 10444 10446 10443 10440 10438 10439 10440 10443 10447 10452 10454 10450 10448 10448 10451 10454 10455 10456 10456 10455 10453 10455 10456 10456 10456 10457 10456 10456 10457 10458 10460 10463 10463 10462 10463 10463 10462 10465
10370 10374 10377 10378 10377 10375 10376 10381 10386 10387 10389 10390 10390 10391 10392 10393 10393 10392 10392 10394 10398 10400 10402 10405 10410 10410 10407 10408 10412 10413 10413 10415 10417 10417 10417 10417 10413 10411 10415 10421 10425 10425 10423 10422 10424 10426 10426 10427 10429 10432 10435 10437 10436 10434 10431 10431 10434 10436 10439 10443 10444 10444 10442 10442 10443 10445 10445 10449 10451 10447 10445 10448 10447 10445 10446 10448 10449 10449 10449 10449 10451 10454 10455 10454 10453 10454 10455 10457
10362 10365 10366 10366 10368 10368 10370 10373 10376 10378 10379 10379 10381 10383 10385 10386 10385 10384 10385 10389 10392 10393 10396 10402 10405 10402 10400 10403 10407 10408 10408 10410 10413 10414 10414 10412 10406 10405 10409 10413 10417 10419 10417 10415 10416 10418 10420 10421 10421 10423 10426 10428 10428 10428 10426 10424 10426 10429 10431 10433 10434 10435 10435 10435 10437 10436 10437 10442 10445 10439 10437 10440 10438 10434 10435 10438 10442 10443 10441 10441 10441 10443 10445 10446 10446 10447 10449 10451
10353 10355 10355 10356 10358 10361 10363 10363 10364 10367 10369 10371 10375 10378 10378 10379 10379 10376 10377 10381 10385 10388 10391 10397 10399 10397 10396 10398 10400 10402 10403 10406 10408 10409 10408 10403 10398 10399 10401 10404 10409 10413 10412 10410 10410 10412 10414 10414 10414 10416 10419 10420 10419 10419 10419 10418 10419 10421 10424 10425 10424 10425 10427 10429 10431 10430 10429 10433 10434 10430 10430 10432 10429 10426 10426 10428 10431 10435 10434 10433 10433 10433 10435 10438 10440 10441 10443 10445
10344 10345 10346 10346 10347 10351 10354 10353 10352 10356 10361 10366 10370 10370 10371 10372 10370 10368 10369 10373 10379 10384 10386 10391 10395 10392 10388 10389 10392 10396 10399 10400 10400 10400 10399 10394 10390 10391 10393 10396 10402 10407 10406 10404 10406 10409 10407 10404 10407 10410 10412 10413 10412 10410 10410 10411 10413 10417 10419 10417 10416 10417 10420 10421 10421 10420 10419 10421 10423 10422 10423 10423 10419 10417 10419 10419 10420 10425 10427 10425 10424 10425 10428 10430 10432 10434 10435 10436
10334 10336 10336 10337 10337 10340 10344 10345 10346 10350 10355 10360 10361 10360 10361 10362 10361 10362 10364 10367 10374 10379 10382 10386 10387 10381 10377 10381 10386 10389 10391 10393 10392 10391 10389 10386 10382 10383 10386 10389 10393 10398 10399 10398 10399 10403 10401 10397 10399 10402 10404 10405 10405 10404 10404 10406 10409 10413 10411 10408 10407 10409 10410 10411 10411 10411 10410 10413 10415 10416 10416 10413 10408 10408 10413 10413 10412 10416 10419 10416 10414 10416 10420 10422 10424 10425 10426 10426
10325 10326 10327 10328 10328 10331 10336 10339 10341 10344 10347 10349 10351 10351 10352 10353 10355 10359 10360 10359 10365 10371 10374 10377 10375 10370 10370 10375 10377 10379 10382 10384 10383 10381 10380 10378 10376 10377 10380 10383 10385 10388 10390 10391 10393 10396 10395 10393 10391 10392 10397 10399 10398 10398 10399 10401 10405 10406 10402 10399 10400 10402 10403 10403 10404 10403 10403 10405 10407 10407 10406 10403 10399 10400 10405 10406 10407 10410 10410 10407 10405 10407 10410 10414 10415 10415 10416 10416